Regional Weather Roundup
Issued by NWS

Home | Current Version | Previous Version | Graphics & Text | Print | Product List | Glossary On
Versions: 1 2 3 4 5 6 7 8 9 10 11 12 13 14 15 16 17 18 19 20 21 22 23 24 25 26 27 28 29 30 31 32 33 34 35 36 37 38 39 40 41 42 43 44 45 46 47 48
000
ASUS45 KBOI 041310
RWRID

IDAHO REGIONAL WEATHER ROUNDUP
NATIONAL WEATHER SERVICE BOISE ID
700 AM MDT TUE AUG 04 2015

NOTE: "FAIR" INDICATES FEW OR NO CLOUDS BELOW 12000 FEET
WITH NO SIGNIFICANT WEATHER AND/OR OBSTRUCTIONS TO VISIBILITY

IDZ012-014-041400-
SOUTHWEST IDAHO


CITY           SKY/WX    TMP DP  RH WIND       PRES   REMARKS
BOISE          PTCLDY    66  54  65 S5        29.97R
CALDWELL       PTCLDY    64  50  59 SW3         N/A
MOUNTAIN HOME  CLEAR     64  49  58 W8        29.98R
$$

IDZ016-017-041400-
SOUTHCENTRAL IDAHO


CITY           SKY/WX    TMP DP  RH WIND       PRES   REMARKS
BURLEY         CLEAR     53  50  89 SW3       30.07R
JEROME         CLEAR     54  51  90 CALM      30.08R
TWIN FALLS     CLEAR     62  46  55 S13       30.05R
$$

IDZ019>023-041400-
SOUTHEAST IDAHO


CITY           SKY/WX    TMP DP  RH WIND       PRES   REMARKS
IDAHO FALLS    PTCLDY    55  53  93 N3        30.13R
POCATELLO      CLEAR     54  53  97 NW3       30.10R
REXBURG        MOCLDY    58  55  90 CALM      30.13R
$$

IDZ006-010-011-018-031-032-041400-
CENTRAL IDAHO MOUNTAINS


CITY           SKY/WX    TMP DP  RH WIND       PRES   REMARKS
MCCALL         CLOUDY    56  45  66 N5        30.09S
HAILEY         PTCLDY    55  45  67 NW12      30.16R
STANLEY          N/A     55  43  63 S8        30.21F
SALMON         PTCLDY    57  46  67 SE5       30.02R
CHALLIS        MOCLDY    57  45  64 SE7       30.11S
$$

IDZ002-004-006-007-026-041400-
NORTHERN IDAHO


CITY           SKY/WX    TMP DP  RH WIND       PRES   REMARKS
LEWISTON       MOCLDY    68  47  46 CALM      29.89R
LOWELL           N/A     59  51  75 NW3       29.96R
COEUR D`ALENE  PTCLDY    63  46  55 SW6       29.90R
MULLAN PASS    CLOUDY    58  40  51 VRB6      30.10S
$$


USA.gov is the U.S. government's official web portal to all federal, state and local government web resources and services.